Colorado Springs, CO

7:26 AM MDT on July 24, 2016 (GMT -0600)
City Of Colorado Springs Municipal

Weather History for KCOS - March, 2013

Change the Weather History Date:

Friday, March 1, 2013

  Actual Average Record
Temperature  
Mean Temperature 32 °F 35 °F  
Max Temperature 42 °F 48 °F 73 °F (2008)
Min Temperature 21 °F 22 °F -9 °F (1947)
Degree Days  
Heating Degree Days 33 30  
Month to date heating degree days 33 30  
Since 1 July heating degree days 4377 4593  
Cooling Degree Days 0 0  
Month to date cooling degree days 0 0  
Year to date cooling degree days 0 0  
Moisture  
Dew Point 15 °F    
Average Humidity 50    
Maximum Humidity 62    
Minimum Humidity 37    
Precipitation  
Precipitation 0.00 in 0.02 in 2.32 in (1896)
Month to date precipitation 0.00 0.02  
Year to date precipitation 1.08 0.68  
Snow  
Snow 0.00 in 0.20 in 13.30 in (1896)
Month to date snowfall 0.0 0.2  
Since 1 July snowfall 20.1 24.2  
Snow Depth 3.00 in    
Sea Level Pressure  
Sea Level Pressure 30.37 in    
Wind  
Wind Speed 6 mph (SSW)    
Max Wind Speed 18 mph    
Max Gust Speed 21 mph    
Visibility 10 miles    
Events      
T = Trace of Precipitation, MM = Missing Value Source: NWS Daily Summary

Daily Weather History Graph

Daily Weather History Graph

Search for Another Location

Airport or City:

Trip Planner

Search our weather history database for the weather conditions in past years. The results will help you decide how hot, cold, wet, or windy it might be!

Date:

Astronomy

Mar. 01, 2013 Rise Set
Actual Time 6:30 AM MST 5:51 PM MST
Civil Twilight 6:03 AM MST 6:18 PM MST
Nautical Twilight 5:33 AM MST 6:49 PM MST
Astronomical Twilight 5:02 AM MST 7:20 PM MST
Moon 10:24 PM MST (3/1) 8:21 AM MST (3/1)
Length of Visible Light 12h 14m
Length of Day
11h 21m
Waning Gibbous, 83% of the Moon is Illuminated
Mar 1
Waning Gibbous
Mar 4
Last Quarter
Mar 11
New
Mar 19
First Quarter
Mar 27
Full

Hourly Weather History & Observations

Time (MST) Temp. Windchill Dew Point Humidity Pressure Visibility Wind Dir Wind Speed Gust Speed Precip Events Conditions
12:54 AM 24.1 °F - 10.0 °F 55% 30.33 in 10.0 mi Calm Calm - N/A   Clear
1:54 AM 23.0 °F 17.0 °F 10.9 °F 60% 30.33 in 10.0 mi North 4.6 mph - N/A   Clear
3:54 AM 25.0 °F 14.8 °F 12.9 °F 60% 30.32 in 10.0 mi North 10.4 mph - N/A   Clear
4:54 AM 24.8 °F 12.9 °F 14.0 °F 64% 30.24 in 10.0 mi NNE 13.8 mph - N/A   Partly Cloudy
5:54 AM 26.1 °F 19.4 °F 12.0 °F 55% 30.38 in 10.0 mi West 5.8 mph - N/A   Clear
6:54 AM 25.0 °F 15.5 °F 12.0 °F 58% 30.41 in 10.0 mi WNW 9.2 mph - N/A   Partly Cloudy
7:54 AM 28.0 °F 20.8 °F 12.9 °F 53% 30.41 in 10.0 mi West 6.9 mph - N/A   Scattered Clouds
8:54 AM 30.9 °F 26.2 °F 14.0 °F 50% 30.41 in 10.0 mi WSW 4.6 mph - N/A   Scattered Clouds
9:54 AM 34.0 °F 27.2 °F 15.1 °F 46% 30.40 in 10.0 mi South 8.1 mph - N/A   Scattered Clouds
10:54 AM 36.0 °F 29.6 °F 16.0 °F 44% 30.38 in 10.0 mi South 8.1 mph - N/A   Scattered Clouds
11:54 AM 37.0 °F 31.0 °F 15.1 °F 41% 30.38 in 10.0 mi South 8.1 mph - N/A   Scattered Clouds
12:54 PM 39.0 °F 34.0 °F 16.0 °F 39% 30.37 in 10.0 mi South 6.9 mph - N/A   Scattered Clouds
1:54 PM 39.0 °F 34.8 °F 17.1 °F 41% 30.35 in 10.0 mi South 5.8 mph - N/A   Scattered Clouds
2:54 PM 39.9 °F 35.8 °F 17.1 °F 40% 30.34 in 10.0 mi South 5.8 mph - N/A   Scattered Clouds
3:54 PM 41.0 °F 37.1 °F 17.1 °F 38% 30.32 in 10.0 mi South 5.8 mph - N/A   Partly Cloudy
4:54 PM 39.9 °F 36.7 °F 17.1 °F 40% 30.34 in 10.0 mi ESE 4.6 mph - N/A   Partly Cloudy
5:54 PM 37.0 °F 33.3 °F 19.0 °F 48% 30.38 in 10.0 mi East 4.6 mph - N/A   Partly Cloudy
6:54 PM 37.9 °F - 18.0 °F 45% 30.41 in 10.0 mi Calm Calm - N/A   Partly Cloudy
7:54 PM 33.1 °F 28.7 °F 19.0 °F 56% 30.43 in 10.0 mi West 4.6 mph - N/A   Clear
8:54 PM 34.0 °F - 18.0 °F 52% 30.42 in 10.0 mi Calm Calm - N/A   Clear
9:54 PM 34.0 °F - 17.1 °F 50% 30.41 in 10.0 mi Calm Calm - N/A   Clear
10:54 PM 30.9 °F 24.3 °F 17.1 °F 57% 30.40 in 10.0 mi SSE 6.9 mph - N/A   Clear
11:54 PM 32.0 °F 28.7 °F 16.0 °F 52% 30.39 in 10.0 mi ESE 3.5 mph - N/A   Clear